Location: Antichan
(42.9728°N, 0.6667°E)
Time: 12:48:08
(UTC+00:00)

BREEZE-M DEB (TANK) - Pass Details

Date: 15 August 2020
Orbit: 280 x 20488 km, 49.2° (Epoch: 23 September)

Event Time Altitude Azimuth Distance (km) Brightness Sun altitude
Rises 19:55:28 0° 276° (W) 3,994 8.6 -10.2°
Reaches altitude 10° 19:59:37 10° 290° (WNW) 1,916 7.1 -10.9°
Maximum altitude 20:02:30 23° 347° (NNW) 819 4.3 -11.3°
Drops below altitude 10° 20:04:17 10° 47° (NE) 1,148 4.3 -11.6°
Enters shadow 20:04:52 - 56° (NE) 1,397 4.7 -11.7°
